| time (UTC) | temp F | wind direction | speed knots | gust knots | rain 1hr in | rain 24hr in | rain mn in | humidity % | barometer mb |
| 20260906120512 | 72 | 5 | 0.9 | 1.7 | 0.00 | 0.12 | 0.00 | 93 | 1011.8 |
| 20260906120027 | 72 | 5 | 0.0 | 1.7 | 0.00 | 0.12 | 0.00 | 93 | 1011.8 |
| 20260906115504 | 72 | 13 | 0.0 | 1.7 | 0.00 | 0.12 | 0.00 | 93 | 1011.7 |
| 20260906115003 | 72 | 13 | 0.0 | 1.7 | 0.00 | 0.12 | 0.00 | 93 | 1011.7 |
| 20260906114525 | 72 | 13 | 0.0 | 0.9 | 0.00 | 0.12 | 0.00 | 93 | 1011.6 |
| 20260906114003 | 72 | 13 | 0.0 | 1.7 | 0.00 | 0.12 | 0.00 | 93 | 1011.6 |
| 20260906113506 | 71 | 13 | 0.0 | 1.7 | 0.00 | 0.12 | 0.00 | 93 | 1011.6 |
| 20260906113018 | 71 | 13 | 0.0 | 1.7 | 0.00 | 0.12 | 0.00 | 93 | 1011.5 |
| 20260906112508 | 71 | 13 | 0.0 | 1.7 | 0.00 | 0.12 | 0.00 | 93 | 1011.4 |
| 20260906112008 | 71 | 13 | 0.0 | 1.7 | 0.00 | 0.12 | 0.00 | 93 | 1011.4 |
| 20260906111532 | 71 | 13 | 0.0 | 1.7 | 0.00 | 0.12 | 0.00 | 93 | 1011.3 |
| 20260906111011 | 71 | 13 | 0.0 | 0.9 | 0.00 | 0.12 | 0.00 | 93 | 1011.4 |
| 20260906110512 | 71 | 13 | 0.0 | 1.7 | 0.00 | 0.12 | 0.00 | 93 | 1011.3 |
| 20260906110028 | 71 | 13 | 0.0 | 1.7 | 0.00 | 0.12 | 0.00 | 93 | 1011.3 |
| 20260906105514 | 71 | 13 | 0.9 | 1.7 | 0.00 | 0.12 | 0.00 | 93 | 1011.3 |
| 20260906105011 | 71 | 10 | 0.0 | 1.7 | 0.00 | 0.12 | 0.00 | 93 | 1011.3 |
| 20260906104534 | 71 | 10 | 0.0 | 1.7 | 0.00 | 0.12 | 0.00 | 93 | 1011.3 |
| 20260906104012 | 71 | 10 | 0.0 | 1.7 | 0.00 | 0.12 | 0.00 | 93 | 1011.2 |
| 20260906103504 | 71 | 10 | 0.0 | 1.7 | 0.00 | 0.12 | 0.00 | 93 | 1011.2 |
| 20260906103012 | 72 | 10 | 0.9 | 1.7 | 0.00 | 0.12 | 0.00 | 93 | 1011.2 |
| 20260906102513 | 72 | 10 | 0.9 | 1.7 | 0.00 | 0.12 | 0.00 | 93 | 1011.1 |
| 20260906102008 | 72 | 10 | 0.0 | 1.7 | 0.00 | 0.12 | 0.00 | 93 | 1011.0 |
| 20260906101521 | 72 | 13 | 0.0 | 1.7 | 0.00 | 0.12 | 0.00 | 93 | 1010.9 |
| 20260906101009 | 72 | 13 | 0.9 | 1.7 | 0.00 | 0.12 | 0.00 | 93 | 1010.8 |
| 20260906100512 | 72 | 13 | 0.0 | 1.7 | 0.00 | 0.12 | 0.00 | 93 | 1010.8 |
| 20260906100029 | 72 | 13 | 0.0 | 2.6 | 0.00 | 0.12 | 0.00 | 93 | 1010.6 |
| 20260906095515 | 72 | 13 | 0.9 | 2.6 | 0.00 | 0.12 | 0.00 | 92 | 1010.5 |
| 20260906095016 | 72 | 13 | 0.0 | 2.6 | 0.00 | 0.12 | 0.00 | 92 | 1010.5 |
| 20260906094553 | 72 | 13 | 0.0 | 2.6 | 0.00 | 0.12 | 0.00 | 93 | 1010.4 |
| 20260906094016 | 72 | 13 | 0.9 | 2.6 | 0.00 | 0.12 | 0.00 | 93 | 1010.4 |
| 20260906093516 | 72 | 13 | 0.0 | 1.7 | 0.00 | 0.12 | 0.00 | 93 | 1010.4 |
| 20260906093042 | 72 | 13 | 0.0 | 1.7 | 0.00 | 0.12 | 0.00 | 93 | 1010.6 |
| 20260906092517 | 72 | 13 | 0.9 | 1.7 | 0.00 | 0.12 | 0.00 | 93 | 1010.4 |
| 20260906092008 | 72 | 13 | 0.0 | 1.7 | 0.00 | 0.12 | 0.00 | 93 | 1010.4 |
| 20260906091515 | 72 | 13 | 0.0 | 2.6 | 0.00 | 0.12 | 0.00 | 93 | 1010.5 |
| 20260906091011 | 72 | 10 | 0.9 | 2.6 | 0.00 | 0.12 | 0.00 | 92 | 1010.4 |
| 20260906090510 | 72 | 11 | 0.9 | 1.7 | 0.00 | 0.12 | 0.00 | 92 | 1010.5 |
| 20260906090003 | 72 | 11 | 0.9 | 1.7 | 0.00 | 0.12 | 0.00 | 92 | 1010.4 |
| 20260906085503 | 72 | 11 | 0.9 | 2.6 | 0.00 | 0.12 | 0.00 | 92 | 1010.4 |
| 20260906085001 | 72 | 350 | 0.9 | 2.6 | 0.00 | 0.12 | 0.00 | 92 | 1010.5 |
| 20260906084504 | 72 | 5 | 0.9 | 2.6 | 0.00 | 0.12 | 0.00 | 92 | 1010.6 |
| 20260906084004 | 72 | 352 | 0.9 | 1.7 | 0.00 | 0.12 | 0.00 | 92 | 1010.5 |
| 20260906083504 | 72 | 5 | 0.9 | 1.7 | 0.00 | 0.12 | 0.00 | 92 | 1010.6 |
| 20260906083008 | 72 | 5 | 0.0 | 1.7 | 0.00 | 0.12 | 0.00 | 92 | 1010.6 |
| 20260906082504 | 72 | 5 | 0.9 | 1.7 | 0.00 | 0.12 | 0.00 | 92 | 1010.6 |
| 20260906082004 | 72 | 360 | 0.9 | 1.7 | 0.00 | 0.12 | 0.00 | 92 | 1010.4 |
| 20260906081501 | 73 | 360 | 0.0 | 1.7 | 0.00 | 0.12 | 0.00 | 92 | 1010.4 |
| 20260906081001 | 72 | 360 | 0.9 | 2.6 | 0.00 | 0.12 | 0.00 | 92 | 1010.5 |
| 20260906080501 | 72 | 348 | 0.9 | 2.6 | 0.00 | 0.12 | 0.00 | 92 | 1010.4 |
| 20260906080004 | 72 | 52 | 0.0 | 1.7 | 0.00 | 0.12 | 0.00 | 92 | 1010.4 |
| 20260906075501 | 73 | 52 | 0.0 | 1.7 | 0.00 | 0.12 | 0.00 | 92 | 1010.5 |
| 20260906075000 | 73 | 52 | 0.0 | 1.7 | 0.00 | 0.12 | 0.00 | 92 | 1010.6 |
| 20260906074505 | 73 | 52 | 0.0 | 0.9 | 0.00 | 0.12 | 0.00 | 92 | 1010.6 |
| 20260906074003 | 73 | 52 | 0.0 | 1.7 | 0.00 | 0.12 | 0.00 | 92 | 1010.7 |
| 20260906073500 | 73 | 52 | 0.0 | 1.7 | 0.00 | 0.12 | 0.00 | 92 | 1010.7 |
| 20260906073004 | 73 | 52 | 0.0 | 0.9 | 0.00 | 0.12 | 0.00 | 92 | 1010.7 |
| 20260906072504 | 73 | 52 | 0.0 | 1.7 | 0.00 | 0.12 | 0.00 | 92 | 1010.8 |
| 20260906072003 | 73 | 52 | 0.0 | 1.7 | 0.00 | 0.12 | 0.00 | 92 | 1010.8 |
| 20260906071508 | 73 | 30 | 0.9 | 1.7 | 0.00 | 0.12 | 0.00 | 92 | 1010.7 |
| 20260906071004 | 73 | 130 | 0.0 | 1.7 | 0.00 | 0.12 | 0.00 | 92 | 1010.7 |
| 20260906070506 | 73 | 351 | 0.0 | 1.7 | 0.00 | 0.12 | 0.00 | 92 | 1010.8 |
| 20260906070000 | 73 | 351 | 0.0 | 1.7 | 0.00 | 0.12 | 0.00 | 91 | 1010.8 |
| 20260906065501 | 73 | 351 | 0.0 | 1.7 | 0.00 | 0.12 | 0.00 | 92 | 1010.9 |
| 20260906065002 | 74 | 351 | 0.9 | 2.6 | 0.00 | 0.12 | 0.00 | 91 | 1010.9 |
| 20260906064501 | 74 | 360 | 0.0 | 2.6 | 0.00 | 0.12 | 0.00 | 91 | 1011.0 |
| 20260906064003 | 74 | 352 | 0.9 | 2.6 | 0.00 | 0.12 | 0.00 | 91 | 1010.9 |
| 20260906063501 | 74 | 5 | 1.7 | 3.5 | 0.00 | 0.12 | 0.00 | 92 | 1010.8 |
| 20260906063005 | 74 | 331 | 1.7 | 4.3 | 0.00 | 0.12 | 0.00 | 92 | 1010.7 |
| 20260906062503 | 74 | 5 | 0.9 | 4.3 | 0.00 | 0.12 | 0.00 | 92 | 1010.7 |
| 20260906062004 | 74 | 11 | 1.7 | 4.3 | 0.00 | 0.12 | 0.00 | 91 | 1010.7 |
| 20260906061510 | 74 | 360 | 1.7 | 4.3 | 0.00 | 0.12 | 0.00 | 91 | 1010.6 |
| 20260906061003 | 74 | 352 | 1.7 | 4.3 | 0.00 | 0.12 | 0.00 | 91 | 1010.7 |
| 20260906060503 | 74 | 343 | 1.7 | 4.3 | 0.00 | 0.12 | 0.00 | 91 | 1010.8 |
| 20260906060016 | 74 | 18 | 1.7 | 4.3 | 0.00 | 0.12 | 0.00 | 91 | 1010.7 |
| 20260906055507 | 74 | 351 | 1.7 | 4.3 | 0.00 | 0.12 | 0.00 | 91 | 1010.7 |
| 20260906055009 | 74 | 352 | 0.9 | 3.5 | 0.00 | 0.12 | 0.00 | 91 | 1010.8 |
| 20260906054519 | 74 | 360 | 0.9 | 3.5 | 0.00 | 0.12 | 0.00 | 91 | 1010.9 |
| 20260906054003 | 74 | 352 | 0.9 | 2.6 | 0.00 | 0.12 | 0.00 | 91 | 1010.9 |
| 20260906053503 | 74 | 349 | 0.9 | 2.6 | 0.00 | 0.12 | 0.00 | 91 | 1010.8 |
| 20260906053009 | 74 | 345 | 0.9 | 2.6 | 0.00 | 0.12 | 0.00 | 91 | 1010.8 |
| 20260906052500 | 74 | 340 | 0.9 | 1.7 | 0.00 | 0.12 | 0.00 | 91 | 1010.7 |
| 20260906052004 | 75 | 339 | 0.9 | 3.5 | 0.00 | 0.12 | 0.00 | 91 | 1010.8 |
| 20260906051505 | 75 | 340 | 0.9 | 3.5 | 0.00 | 0.12 | 0.00 | 91 | 1010.6 |
| 20260906051004 | 75 | 352 | 0.0 | 2.6 | 0.00 | 0.12 | 0.00 | 91 | 1010.5 |
| 20260906050504 | 75 | 352 | 0.9 | 3.5 | 0.00 | 0.12 | 0.00 | 91 | 1010.4 |
| 20260906050011 | 75 | 340 | 0.9 | 3.5 | 0.00 | 0.12 | 0.00 | 91 | 1010.4 |
| 20260906045508 | 75 | 314 | 1.7 | 4.3 | 0.00 | 0.12 | 0.00 | 91 | 1010.4 |
| 20260906045007 | 75 | 352 | 1.7 | 4.3 | 0.00 | 0.12 | 0.00 | 91 | 1010.4 |
| 20260906044518 | 75 | 360 | 0.9 | 1.7 | 0.00 | 0.12 | 0.00 | 91 | 1010.6 |
| 20260906044007 | 75 | 334 | 0.9 | 1.7 | 0.00 | 0.12 | 0.00 | 91 | 1010.7 |
| 20260906043510 | 75 | 19 | 0.9 | 1.7 | 0.00 | 0.12 | 0.00 | 91 | 1010.8 |
| 20260906043026 | 76 | 352 | 0.0 | 1.7 | 0.00 | 0.12 | 0.00 | 91 | 1011.0 |
| 20260906042503 | 76 | 24 | 0.0 | 1.7 | 0.00 | 0.12 | 0.00 | 92 | 1011.1 |
| 20260906042000 | 76 | 84 | 0.0 | 4.3 | 0.00 | 0.12 | 0.00 | 92 | 1011.2 |
| 20260906041506 | 76 | 296 | 0.9 | 4.3 | 0.00 | 0.12 | 0.00 | 92 | 1011.3 |
| 20260906041005 | 75 | 227 | 0.9 | 4.3 | 0.00 | 0.12 | 0.00 | 92 | 1011.4 |
| 20260906040503 | 75 | 194 | 1.7 | 3.5 | 0.00 | 0.12 | 0.00 | 92 | 1011.6 |
| 20260906040016 | 76 | 184 | 0.9 | 3.5 | 0.00 | 0.12 | 0.00 | 92 | 1011.6 |
| 20260906035505 | 76 | 187 | 0.9 | 2.6 | 0.00 | 0.12 | 0.12 | 93 | 1011.7 |
| 20260906035004 | 75 | 201 | 0.0 | 2.6 | 0.00 | 0.12 | 0.12 | 93 | 1011.6 |
| 20260906034516 | 75 | 172 | 0.9 | 3.5 | 0.00 | 0.12 | 0.12 | 93 | 1011.6 |
| 20260906034008 | 75 | 186 | 1.7 | 3.5 | 0.00 | 0.12 | 0.12 | 93 | 1011.8 |
| 20260906033507 | 74 | 173 | 1.7 | 3.5 | 0.00 | 0.12 | 0.12 | 93 | 1011.9 |
| 20260906033032 | 74 | 300 | 0.0 | 0.9 | 0.00 | 0.12 | 0.12 | 93 | 1011.7 |
| 20260906032509 | 74 | 300 | 0.0 | 0.9 | 0.00 | 0.12 | 0.12 | 93 | 1011.8 |
| 20260906032011 | 74 | 16 | 0.0 | 0.9 | 0.00 | 0.12 | 0.12 | 93 | 1011.9 |
| 20260906031536 | 74 | 16 | 0.0 | 0.9 | 0.00 | 0.12 | 0.12 | 93 | 1012.2 |
| 20260906031011 | 74 | 16 | 0.0 | 0.9 | 0.00 | 0.12 | 0.12 | 93 | 1012.4 |
| 20260906030504 | 74 | 16 | 0.0 | 0.9 | 0.00 | 0.12 | 0.12 | 93 | 1012.2 |
| 20260906030009 | 74 | 16 | 0.0 | 0.9 | 0.00 | 0.12 | 0.12 | 93 | 1012.0 |
| 20260906025503 | 74 | 16 | 0.0 | 1.7 | 0.00 | 0.12 | 0.12 | 92 | 1011.8 |
| 20260906025003 | 74 | 16 | 0.0 | 1.7 | 0.00 | 0.12 | 0.12 | 92 | 1011.7 |
| 20260906024526 | 74 | 16 | 0.0 | 1.7 | 0.00 | 0.12 | 0.12 | 93 | 1011.8 |
| 20260906024006 | 73 | 26 | 0.0 | 1.7 | 0.00 | 0.12 | 0.12 | 92 | 1011.6 |
| 20260906023506 | 74 | 26 | 0.0 | 1.7 | 0.00 | 0.12 | 0.12 | 93 | 1011.9 |
| 20260906023019 | 73 | 5 | 0.0 | 1.7 | 0.00 | 0.12 | 0.12 | 93 | 1011.9 |
| 20260906022509 | 73 | 5 | 0.0 | 0.9 | 0.00 | 0.12 | 0.12 | 93 | 1011.7 |
| 20260906022008 | 73 | 5 | 0.0 | 0.9 | 0.00 | 0.12 | 0.12 | 92 | 1011.7 |
| 20260906021526 | 73 | 5 | 0.0 | 0.9 | 0.00 | 0.12 | 0.12 | 92 | 1011.9 |
| 20260906021011 | 73 | 5 | 0.0 | 0.9 | 0.00 | 0.12 | 0.12 | 92 | 1011.9 |
| 20260906020513 | 73 | 5 | 0.0 | 0.9 | 0.00 | 0.12 | 0.12 | 92 | 1012.1 |
| 20260906020030 | 73 | 5 | 0.0 | 1.7 | 0.00 | 0.12 | 0.12 | 92 | 1012.3 |
| 20260906015511 | 73 | 5 | 0.0 | 1.7 | 0.00 | 0.12 | 0.12 | 92 | 1012.2 |
| 20260906015003 | 73 | 5 | 0.0 | 1.7 | 0.00 | 0.12 | 0.12 | 92 | 1012.1 |
| 20260906014510 | 73 | 5 | 0.0 | 1.7 | 0.00 | 0.12 | 0.12 | 92 | 1012.1 |
| 20260906014003 | 73 | 16 | 0.9 | 1.7 | 0.00 | 0.12 | 0.12 | 92 | 1011.9 |
| 20260906013506 | 73 | 22 | 0.0 | 1.7 | 0.00 | 0.12 | 0.12 | 92 | 1012.2 |
| 20260906013034 | 73 | 22 | 0.0 | 1.7 | 0.00 | 0.12 | 0.12 | 92 | 1012.2 |
| 20260906012510 | 73 | 60 | 0.0 | 3.5 | 0.00 | 0.12 | 0.12 | 92 | 1012.2 |
| 20260906012006 | 73 | 31 | 0.9 | 3.5 | 0.00 | 0.12 | 0.12 | 92 | 1012.3 |
| 20260906011520 | 73 | 84 | 0.9 | 3.5 | 0.00 | 0.12 | 0.12 | 92 | 1012.2 |
| 20260906011011 | 73 | 14 | 0.9 | 3.5 | 0.00 | 0.12 | 0.12 | 92 | 1012.1 |
| 20260906010511 | 73 | 46 | 0.9 | 2.6 | 0.00 | 0.12 | 0.12 | 92 | 1012.1 |
| 20260906010028 | 73 | 45 | 0.9 | 2.6 | 0.00 | 0.12 | 0.12 | 92 | 1011.9 |
| 20260906005513 | 74 | 42 | 0.0 | 1.7 | 0.00 | 0.12 | 0.12 | 92 | 1011.7 |
| 20260906005015 | 74 | 55 | 0.0 | 1.7 | 0.00 | 0.12 | 0.12 | 92 | 1011.5 |
| 20260906004530 | 74 | 55 | 0.0 | 1.7 | 0.00 | 0.12 | 0.12 | 92 | 1011.2 |
| 20260906004015 | 74 | 31 | 0.9 | 1.7 | 0.00 | 0.12 | 0.12 | 92 | 1011.1 |
| 20260906003516 | 74 | 352 | 0.0 | 1.7 | 0.00 | 0.12 | 0.12 | 92 | 1011.2 |
| 20260906003013 | 74 | 352 | 0.0 | 1.7 | 0.00 | 0.12 | 0.12 | 92 | 1011.4 |
| 20260906002504 | 74 | 34 | 0.0 | 0.9 | 0.00 | 0.12 | 0.12 | 92 | 1011.2 |
| 20260906002008 | 74 | 34 | 0.0 | 1.7 | 0.00 | 0.12 | 0.12 | 92 | 1011.2 |
| 20260906001521 | 74 | 34 | 0.0 | 1.7 | 0.00 | 0.12 | 0.12 | 91 | 1011.1 |
| 20260906001008 | 73 | 30 | 0.0 | 1.7 | 0.02 | 0.12 | 0.12 | 91 | 1011.0 |
| 20260906000510 | 73 | 30 | 0.0 | 1.7 | 0.05 | 0.12 | 0.12 | 91 | 1011.0 |
| 20260906000026 | 74 | 30 | 0.0 | 1.7 | 0.10 | 0.12 | 0.12 | 91 | 1010.9 |
| 20260905235514 | 74 | 147 | 0.0 | 1.7 | 0.12 | 0.12 | 0.12 | 91 | 1010.6 |
| 20260905235013 | 74 | 147 | 0.0 | 2.6 | 0.12 | 0.12 | 0.12 | 91 | 1010.8 |
| 20260905234532 | 74 | 193 | 0.0 | 2.6 | 0.12 | 0.12 | 0.12 | 91 | 1011.1 |
| 20260905234014 | 73 | 158 | 0.9 | 1.7 | 0.12 | 0.12 | 0.12 | 91 | 1011.1 |
| 20260905233521 | 73 | 184 | 0.9 | 1.7 | 0.12 | 0.12 | 0.12 | 90 | 1011.7 |
| 20260905233005 | 73 | 71 | 0.0 | 1.7 | 0.12 | 0.12 | 0.12 | 90 | 1012.0 |
| 20260905232504 | 73 | 36 | 0.0 | 2.6 | 0.12 | 0.12 | 0.12 | 89 | 1012.2 |
| 20260905232004 | 74 | 134 | 0.0 | 2.6 | 0.12 | 0.12 | 0.12 | 89 | 1012.1 |
| 20260905231514 | 74 | 217 | 0.9 | 4.3 | 0.12 | 0.12 | 0.12 | 87 | 1012.5 |
| 20260905231008 | 75 | 196 | 1.7 | 7.8 | 0.10 | 0.10 | 0.10 | 85 | 1011.6 |
| 20260905230507 | 78 | 137 | 1.7 | 15.6 | 0.07 | 0.07 | 0.07 | 82 | 1012.0 |
| 20260905230004 | 81 | 17 | 5.2 | 16.5 | 0.02 | 0.02 | 0.02 | 79 | 1012.4 |
| 20260905225502 | 83 | 352 | 5.2 | 16.5 | 0.00 | 0.00 | 0.00 | 79 | 1012.4 |
| 20260905225003 | 85 | 352 | 2.6 | 7.0 | 0.00 | 0.00 | 0.00 | 85 | 1012.1 |
| 20260905224506 | 85 | 188 | 0.9 | 6.1 | 0.00 | 0.00 | 0.00 | 86 | 1011.2 |
| 20260905224003 | 85 | 205 | 1.7 | 6.1 | 0.00 | 0.00 | 0.00 | 85 | 1010.9 |
| 20260905223503 | 85 | 188 | 2.6 | 8.7 | 0.00 | 0.00 | 0.00 | 85 | 1010.3 |
| 20260905223009 | 85 | 207 | 3.5 | 8.7 | 0.00 | 0.00 | 0.00 | 84 | 1009.6 |
| 20260905222504 | 85 | 140 | 2.6 | 6.1 | 0.00 | 0.00 | 0.00 | 84 | 1009.8 |
| 20260905222004 | 85 | 182 | 1.7 | 6.1 | 0.00 | 0.00 | 0.00 | 84 | 1010.2 |
| 20260905221513 | 85 | 190 | 1.7 | 5.2 | 0.00 | 0.00 | 0.00 | 85 | 1010.4 |
| 20260905221006 | 85 | 188 | 1.7 | 6.1 | 0.00 | 0.00 | 0.00 | 84 | 1010.1 |
| 20260905220505 | 86 | 192 | 2.6 | 6.1 | 0.00 | 0.00 | 0.00 | 84 | 1010.2 |
| 20260905220015 | 86 | 173 | 0.9 | 5.2 | 0.00 | 0.00 | 0.00 | 84 | 1009.8 |
| 20260905215509 | 86 | 156 | 1.7 | 5.2 | 0.00 | 0.00 | 0.00 | 84 | 1009.6 |
| 20260905215008 | 86 | 107 | 1.7 | 7.0 | 0.00 | 0.00 | 0.00 | 83 | 1009.6 |
| 20260905214526 | 87 | 178 | 2.6 | 7.0 | 0.00 | 0.00 | 0.00 | 83 | 1009.7 |
| 20260905214003 | 87 | 190 | 2.6 | 7.0 | 0.00 | 0.00 | 0.00 | 83 | 1009.6 |
| 20260905213503 | 87 | 161 | 2.6 | 6.1 | 0.00 | 0.00 | 0.00 | 83 | 1009.6 |
| 20260905213006 | 87 | 177 | 2.6 | 5.2 | 0.00 | 0.00 | 0.00 | 82 | 1009.6 |
| 20260905212504 | 88 | 186 | 1.7 | 5.2 | 0.00 | 0.00 | 0.00 | 83 | 1009.5 |
| 20260905212003 | 88 | 167 | 1.7 | 5.2 | 0.00 | 0.00 | 0.00 | 82 | 1009.7 |
| 20260905211508 | 88 | 159 | 2.6 | 5.2 | 0.00 | 0.00 | 0.00 | 82 | 1009.7 |
| 20260905211003 | 88 | 214 | 1.7 | 7.8 | 0.00 | 0.00 | 0.00 | 82 | 1009.8 |
| 20260905210503 | 88 | 234 | 1.7 | 7.8 | 0.00 | 0.00 | 0.00 | 83 | 1009.8 |
| 20260905210013 | 87 | 148 | 2.6 | 6.1 | 0.00 | 0.00 | 0.00 | 82 | 1009.7 |
| 20260905205508 | 88 | 188 | 2.6 | 5.2 | 0.00 | 0.00 | 0.00 | 82 | 1009.6 |
| 20260905205010 | 88 | 193 | 2.6 | 7.0 | 0.00 | 0.00 | 0.00 | 81 | 1009.5 |
| 20260905204527 | 88 | 178 | 1.7 | 7.0 | 0.00 | 0.00 | 0.00 | 81 | 1009.6 |
| 20260905204011 | 88 | 163 | 4.3 | 7.0 | 0.00 | 0.00 | 0.00 | 81 | 1009.7 |
| 20260905203510 | 88 | 250 | 2.6 | 5.2 | 0.00 | 0.00 | 0.00 | 82 | 1009.6 |
| 20260905203027 | 88 | 169 | 1.7 | 5.2 | 0.00 | 0.00 | 0.00 | 82 | 1009.5 |
| 20260905202503 | 88 | 188 | 2.6 | 6.1 | 0.00 | 0.00 | 0.00 | 82 | 1009.6 |
| 20260905202003 | 88 | 198 | 3.5 | 7.8 | 0.00 | 0.00 | 0.00 | 82 | 1009.6 |
| 20260905201508 | 88 | 209 | 2.6 | 7.8 | 0.00 | 0.00 | 0.00 | 81 | 1009.7 |
| 20260905201004 | 88 | 171 | 1.7 | 6.1 | 0.00 | 0.00 | 0.00 | 81 | 1009.7 |
| 20260905200504 | 88 | 211 | 2.6 | 6.1 | 0.00 | 0.00 | 0.00 | 80 | 1009.7 |
| 20260905200017 | 88 | 154 | 1.7 | 7.8 | 0.00 | 0.00 | 0.00 | 81 | 1009.7 |
| 20260905195503 | 88 | 206 | 3.5 | 7.8 | 0.00 | 0.00 | 0.00 | 80 | 1009.7 |
| 20260905195011 | 88 | 219 | 2.6 | 8.7 | 0.00 | 0.00 | 0.00 | 81 | 1009.8 |
| 20260905194517 | 88 | 192 | 1.7 | 9.6 | 0.00 | 0.00 | 0.00 | 80 | 1009.8 |
| 20260905194008 | 88 | 196 | 3.5 | 9.6 | 0.00 | 0.00 | 0.00 | 80 | 1009.8 |
| 20260905193507 | 88 | 193 | 2.6 | 7.0 | 0.00 | 0.00 | 0.00 | 80 | 1009.9 |
| 20260905193026 | 88 | 178 | 3.5 | 9.6 | 0.00 | 0.00 | 0.00 | 80 | 1010.1 |
| 20260905192515 | 88 | 175 | 3.5 | 9.6 | 0.00 | 0.00 | 0.00 | 80 | 1010.1 |
| 20260905192012 | 88 | 169 | 5.2 | 8.7 | 0.00 | 0.00 | 0.00 | 79 | 1010.2 |
| 20260905191530 | 88 | 196 | 2.6 | 8.7 | 0.00 | 0.00 | 0.00 | 81 | 1010.3 |
| 20260905191013 | 88 | 192 | 2.6 | 8.7 | 0.00 | 0.00 | 0.00 | 80 | 1010.6 |
| 20260905190501 | 88 | 192 | 3.5 | 8.7 | 0.00 | 0.00 | 0.00 | 79 | 1010.7 |
| 20260905190010 | 88 | 184 | 3.5 | 8.7 | 0.00 | 0.00 | 0.00 | 80 | 1010.8 |
| 20260905185505 | 88 | 152 | 4.3 | 8.7 | 0.00 | 0.00 | 0.00 | 79 | 1010.8 |
| 20260905185005 | 89 | 200 | 3.5 | 8.7 | 0.00 | 0.00 | 0.00 | 79 | 1011.0 |
| 20260905184514 | 89 | 183 | 4.3 | 8.7 | 0.00 | 0.00 | 0.00 | 78 | 1011.1 |
| 20260905184004 | 89 | 224 | 3.5 | 8.7 | 0.00 | 0.00 | 0.00 | 78 | 1011.2 |
| 20260905183510 | 90 | 190 | 2.6 | 6.1 | 0.00 | 0.00 | 0.00 | 77 | 1011.3 |
| 20260905183021 | 90 | 202 | 2.6 | 6.1 | 0.00 | 0.00 | 0.00 | 78 | 1011.4 |
| 20260905182510 | 89 | 188 | 1.7 | 6.1 | 0.00 | 0.00 | 0.00 | 77 | 1011.3 |
| 20260905182011 | 90 | 216 | 2.6 | 6.1 | 0.00 | 0.00 | 0.00 | 77 | 1011.3 |
| 20260905181529 | 89 | 269 | 2.6 | 7.0 | 0.00 | 0.00 | 0.00 | 78 | 1011.4 |
| 20260905181017 | 89 | 221 | 1.7 | 7.0 | 0.00 | 0.00 | 0.00 | 77 | 1011.5 |
| 20260905180516 | 90 | 187 | 2.6 | 6.1 | 0.00 | 0.00 | 0.00 | 77 | 1011.5 |
| 20260905180030 | 89 | 162 | 1.7 | 6.1 | 0.00 | 0.00 | 0.00 | 79 | 1011.7 |
| 20260905175517 | 89 | 225 | 3.5 | 6.1 | 0.00 | 0.00 | 0.00 | 78 | 1011.7 |
| 20260905175006 | 89 | 183 | 1.7 | 7.8 | 0.00 | 0.00 | 0.00 | 78 | 1011.7 |
| 20260905174512 | 89 | 213 | 0.9 | 7.8 | 0.00 | 0.00 | 0.00 | 78 | 1011.8 |
| 20260905174004 | 89 | 176 | 1.7 | 6.1 | 0.00 | 0.00 | 0.00 | 78 | 1011.8 |
| 20260905173504 | 89 | 193 | 2.6 | 6.1 | 0.00 | 0.00 | 0.00 | 78 | 1011.9 |
| 20260905173015 | 88 | 183 | 2.6 | 7.0 | 0.00 | 0.00 | 0.00 | 78 | 1012.0 |
| 20260905172508 | 88 | 202 | 1.7 | 7.0 | 0.00 | 0.00 | 0.00 | 79 | 1012.0 |
| 20260905172010 | 88 | 200 | 1.7 | 6.1 | 0.00 | 0.00 | 0.00 | 78 | 1012.1 |
| 20260905171524 | 89 | 244 | 2.6 | 6.1 | 0.00 | 0.00 | 0.00 | 78 | 1012.2 |
| 20260905171012 | 89 | 234 | 2.6 | 6.1 | 0.00 | 0.00 | 0.00 | 78 | 1012.2 |
| 20260905170512 | 89 | 167 | 2.6 | 7.0 | 0.00 | 0.00 | 0.00 | 78 | 1012.2 |
| 20260905170032 | 89 | 182 | 2.6 | 7.0 | 0.00 | 0.00 | 0.00 | 78 | 1012.3 |
| 20260905165512 | 89 | 221 | 1.7 | 7.0 | 0.00 | 0.00 | 0.00 | 78 | 1012.4 |
| 20260905165018 | 89 | 167 | 1.7 | 5.2 | 0.00 | 0.00 | 0.00 | 78 | 1012.3 |
| 20260905164533 | 89 | 145 | 0.9 | 4.3 | 0.00 | 0.00 | 0.00 | 78 | 1012.4 |
| 20260905164017 | 88 | 193 | 1.7 | 4.3 | 0.00 | 0.00 | 0.00 | 79 | 1012.4 |
| 20260905163515 | 88 | 169 | 0.9 | 6.1 | 0.00 | 0.00 | 0.00 | 78 | 1012.6 |
| 20260905163015 | 88 | 167 | 1.7 | 6.1 | 0.00 | 0.00 | 0.00 | 79 | 1012.7 |
| 20260905162508 | 89 | 146 | 1.7 | 4.3 | 0.00 | 0.00 | 0.00 | 78 | 1012.7 |
| 20260905162010 | 89 | 113 | 0.9 | 3.5 | 0.00 | 0.00 | 0.00 | 79 | 1012.7 |
| 20260905161523 | 88 | 193 | 1.7 | 4.3 | 0.00 | 0.00 | 0.00 | 79 | 1012.9 |
| 20260905161011 | 88 | 329 | 1.7 | 4.3 | 0.00 | 0.00 | 0.00 | 78 | 1013.0 |
| 20260905160511 | 88 | 107 | 0.9 | 4.3 | 0.00 | 0.00 | 0.00 | 79 | 1013.0 |
| 20260905160029 | 87 | 225 | 1.7 | 5.2 | 0.00 | 0.00 | 0.00 | 79 | 1013.2 |
| 20260905155512 | 87 | 112 | 1.7 | 5.2 | 0.00 | 0.00 | 0.00 | 80 | 1013.2 |
| 20260905155012 | 87 | 210 | 2.6 | 5.2 | 0.00 | 0.00 | 0.00 | 80 | 1013.2 |
| 20260905154530 | 87 | 165 | 1.7 | 4.3 | 0.00 | 0.00 | 0.00 | 80 | 1013.3 |
| 20260905154017 | 87 | 225 | 1.7 | 5.2 | 0.00 | 0.00 | 0.00 | 80 | 1013.3 |
| 20260905153516 | 87 | 203 | 0.9 | 5.2 | 0.00 | 0.00 | 0.00 | 80 | 1013.5 |
| 20260905153034 | 87 | 193 | 1.7 | 4.3 | 0.00 | 0.00 | 0.00 | 80 | 1013.5 |
| 20260905152519 | 87 | 211 | 0.9 | 4.3 | 0.00 | 0.00 | 0.00 | 80 | 1013.4 |
| 20260905152017 | 87 | 172 | 1.7 | 4.3 | 0.00 | 0.00 | 0.00 | 81 | 1013.6 |
| 20260905151514 | 87 | 169 | 1.7 | 5.2 | 0.00 | 0.00 | 0.00 | 81 | 1013.6 |
| 20260905151008 | 86 | 193 | 1.7 | 6.1 | 0.00 | 0.00 | 0.00 | 81 | 1013.6 |
| 20260905150509 | 87 | 229 | 0.9 | 6.1 | 0.00 | 0.00 | 0.00 | 82 | 1013.7 |
| 20260905150027 | 86 | 225 | 0.9 | 5.2 | 0.00 | 0.00 | 0.00 | 82 | 1013.6 |
| 20260905145509 | 86 | 148 | 1.7 | 5.2 | 0.00 | 0.00 | 0.00 | 81 | 1013.6 |
| 20260905145015 | 86 | 315 | 1.7 | 4.3 | 0.00 | 0.00 | 0.00 | 81 | 1013.5 |
| 20260905144529 | 86 | 90 | 0.9 | 4.3 | 0.00 | 0.00 | 0.00 | 81 | 1013.6 |
| 20260905144013 | 86 | 206 | 1.7 | 4.3 | 0.00 | 0.00 | 0.00 | 80 | 1013.7 |
| 20260905143520 | 86 | 177 | 1.7 | 4.3 | 0.00 | 0.00 | 0.00 | 80 | 1013.8 |
| 20260905143000 | 86 | 178 | 0.9 | 4.3 | 0.00 | 0.00 | 0.00 | 81 | 1013.7 |
| 20260905142501 | 86 | 190 | 0.9 | 5.2 | 0.00 | 0.00 | 0.00 | 80 | 1013.6 |
| 20260905142002 | 86 | 161 | 2.6 | 5.2 | 0.00 | 0.00 | 0.00 | 80 | 1013.6 |
| 20260905141504 | 86 | 217 | 1.7 | 4.3 | 0.00 | 0.00 | 0.00 | 80 | 1013.8 |
| 20260905141001 | 85 | 269 | 1.7 | 7.0 | 0.00 | 0.00 | 0.00 | 81 | 1013.8 |
| 20260905140500 | 85 | 219 | 1.7 | 7.0 | 0.00 | 0.00 | 0.00 | 80 | 1013.9 |
| 20260905140004 | 85 | 234 | 0.9 | 4.3 | 0.00 | 0.00 | 0.00 | 81 | 1013.8 |
| 20260905135501 | 85 | 180 | 0.9 | 4.3 | 0.00 | 0.00 | 0.00 | 81 | 1013.8 |
| 20260905135000 | 85 | 213 | 0.9 | 3.5 | 0.00 | 0.00 | 0.00 | 81 | 1013.7 |
| 20260905134504 | 85 | 296 | 1.7 | 3.5 | 0.00 | 0.00 | 0.00 | 81 | 1013.9 |
| 20260905134004 | 85 | 27 | 0.9 | 4.3 | 0.00 | 0.00 | 0.00 | 82 | 1013.9 |
| 20260905133504 | 84 | 22 | 1.7 | 4.3 | 0.00 | 0.00 | 0.00 | 83 | 1013.8 |
| 20260905133003 | 84 | 213 | 0.9 | 7.0 | 0.00 | 0.00 | 0.00 | 83 | 1013.8 |
| 20260905132502 | 83 | 188 | 1.7 | 7.0 | 0.00 | 0.00 | 0.00 | 84 | 1013.8 |
| 20260905132002 | 83 | 228 | 2.6 | 6.1 | 0.00 | 0.00 | 0.00 | 83 | 1013.8 |
| 20260905131504 | 83 | 235 | 1.7 | 4.3 | 0.00 | 0.00 | 0.00 | 84 | 1013.9 |
| 20260905131000 | 83 | 25 | 0.9 | 4.3 | 0.00 | 0.00 | 0.00 | 85 | 1013.9 |
| 20260905130501 | 82 | 212 | 0.9 | 2.6 | 0.00 | 0.00 | 0.00 | 85 | 1014.0 |
| 20260905130004 | 82 | 213 | 0.9 | 4.3 | 0.00 | 0.00 | 0.00 | 86 | 1014.0 |
| 20260905125503 | 81 | 26 | 0.9 | 6.1 | 0.00 | 0.00 | 0.00 | 87 | 1014.1 |
| 20260905125002 | 81 | 208 | 2.6 | 6.1 | 0.00 | 0.00 | 0.00 | 87 | 1014.0 |
| 20260905124505 | 81 | 325 | 0.0 | 4.3 | 0.00 | 0.00 | 0.00 | 88 | 1014.0 |
| 20260905124006 | 80 | 232 | 0.9 | 7.0 | 0.00 | 0.00 | 0.00 | 89 | 1013.9 |
| 20260905123503 | 80 | 190 | 2.6 | 7.0 | 0.00 | 0.00 | 0.00 | 89 | 1013.9 |
| 20260905123013 | 80 | 193 | 0.9 | 5.2 | 0.00 | 0.00 | 0.00 | 89 | 1013.8 |
| 20260905122503 | 80 | 273 | 1.7 | 4.3 | 0.00 | 0.00 | 0.00 | 90 | 1013.8 |
| 20260905122003 | 79 | 226 | 1.7 | 5.2 | 0.00 | 0.00 | 0.00 | 90 | 1013.9 |
| 20260905121503 | 79 | 215 | 1.7 | 6.1 | 0.00 | 0.00 | 0.00 | 90 | 1014.0 |
| 20260905121001 | 79 | 194 | 1.7 | 6.1 | 0.00 | 0.00 | 0.00 | 90 | 1014.0 |